Date String (YYYY-MM-DD hh:mm:ss) UTC,Instrument flags,Ambient pressure (hPa),Sample flow (lpm),Bypass flow (lpm),Sample temperature (°C),Ambient temperature (°C),ASC tube jacket temperature (°C),LED temperature (°C),Box temperature (°C),Sample RH (%),Span deviation,Mass concentration (μg/m³),Mass concentration (μg/m³),Mass concentration (μg/m³)
DateTimeUTC,F1_M11,P_M11,Q1_M11,Q2_M11,T1_M11,T2_M11,T3_M11,T4_M11,T5_M11,U1_M11,ZSPAN_M11,X0_M11,X2_M11,X1_M11
2022-04-30 14:00:00,,0824.6,5.00,0.00,22.5,21.9,00.0,31.5,24.3,14.5,0000.0,0004.68,0001.92,0001.54
2022-04-30 14:01:00,,0824.6,5.00,0.00,22.5,21.9,00.0,31.5,24.3,14.8,0000.0,0004.74,0001.97,0001.58
2022-04-30 14:02:00,,0824.6,5.00,0.00,22.5,21.9,00.0,31.5,24.3,14.5,0000.0,0005.01,0002.18,0001.75
2022-04-30 14:03:00,,0824.6,5.00,0.00,22.5,21.9,00.0,31.5,24.3,14.3,0000.0,0005.38,0002.46,0002.02
2022-04-30 14:04:00,,0824.7,5.01,0.00,22.5,21.9,00.0,31.5,24.3,14.5,0000.0,0005.43,0002.54,0002.13
2022-04-30 14:05:00,,0824.6,5.00,0.00,22.5,21.9,00.0,31.5,24.3,14.6,0000.0,0005.58,0002.66,0002.25
2022-04-30 14:06:00,,0824.8,5.00,0.00,22.5,21.9,00.0,31.5,24.3,14.9,0000.0,0005.73,0002.80,0002.41
2022-04-30 14:07:00,,0824.6,4.99,0.00,22.5,21.9,00.0,31.5,24.4,14.7,0000.0,0005.27,0002.99,0002.62
2022-04-30 14:08:00,,0824.6,5.00,0.00,22.5,21.9,00.0,31.5,24.4,14.3,0000.0,0005.25,0003.09,0002.72
2022-04-30 14:09:00,,0824.7,5.00,0.00,22.5,22.0,00.0,31.5,24.4,14.4,0000.0,0005.58,0003.24,0002.93
2022-04-30 14:10:00,,0824.7,5.00,0.00,22.6,22.0,00.0,31.5,24.4,14.5,0000.0,0005.57,0003.39,0003.12
2022-04-30 14:11:00,,0824.7,5.00,0.00,22.6,22.0,00.0,31.5,24.4,14.5,0000.0,0005.72,0003.48,0003.20
2022-04-30 14:12:00,,0824.8,5.00,0.00,22.6,22.0,00.0,31.5,24.4,14.2,0000.0,0006.30,0003.57,0003.28
2022-04-30 14:13:00,,0824.8,5.00,0.00,22.6,22.0,00.0,31.5,24.4,14.2,0000.0,0006.94,0003.66,0003.36
2022-04-30 14:14:00,,0824.7,5.00,0.00,22.6,22.0,00.0,31.5,24.4,14.6,0002.3,0007.47,0003.89,0003.52
2022-04-30 14:15:00,,0824.7,5.00,0.00,22.6,22.0,00.0,31.5,24.4,14.7,0003.3,0007.93,0004.23,0003.84
2022-04-30 14:16:00,,0824.8,4.99,0.00,22.6,22.0,00.0,31.5,24.4,14.5,0003.3,0008.27,0004.37,0003.96
2022-04-30 14:17:00,,0824.7,4.99,0.00,22.6,22.0,00.0,31.5,24.4,14.8,0003.7,0008.88,0004.36,0003.93
2022-04-30 14:18:00,,0824.7,5.00,0.00,22.6,22.0,00.0,31.5,24.4,14.7,0003.5,0008.69,0004.29,0003.84
2022-04-30 14:19:00,,0824.8,5.00,0.00,22.6,22.0,00.0,31.5,24.4,14.7,0003.2,0008.63,0004.19,0003.75
2022-04-30 14:20:00,,0824.8,5.00,0.00,22.6,22.0,00.0,31.5,24.4,14.5,0000.2,0008.41,0004.02,0003.60
2022-04-30 14:21:00,,0824.9,5.01,0.00,22.6,22.0,00.0,31.5,24.4,14.5,0000.0,0008.23,0003.89,0003.49
2022-04-30 14:22:00,,0824.9,5.00,0.00,22.6,22.0,00.0,31.5,24.5,14.4,0000.0,0008.17,0003.82,0003.42
2022-04-30 14:23:00,,0824.9,5.01,0.00,22.6,22.1,00.0,31.5,24.5,13.8,0000.0,0007.80,0003.70,0003.32
2022-04-30 14:24:00,,0824.9,5.00,0.00,22.7,22.1,00.0,31.5,24.6,14.2,0000.0,0007.29,0003.53,0003.15
2022-04-30 14:25:00,,0824.9,5.00,0.00,22.7,22.1,00.0,31.5,24.6,14.4,0000.0,0006.39,0003.17,0002.69
2022-04-30 14:26:00,,0824.9,5.00,0.00,22.7,22.2,00.0,31.6,24.6,14.5,0000.0,0005.59,0002.58,0002.01
2022-04-30 14:27:00,,0824.9,5.00,0.00,22.7,22.2,00.0,31.6,24.6,14.5,0000.0,0004.79,0002.19,0001.68
2022-04-30 14:28:00,,0824.9,5.00,0.00,22.7,22.2,00.0,31.6,24.7,14.4,0000.0,0003.50,0002.12,0001.60
2022-04-30 14:29:00,,0824.9,5.00,0.00,22.8,22.2,00.0,31.6,24.6,14.1,0000.0,0003.43,0002.10,0001.58
2022-04-30 14:30:00,,0824.9,5.00,0.00,22.8,22.2,00.0,31.6,24.7,14.5,0000.0,0003.44,0002.12,0001.56
2022-04-30 14:31:00,,0824.9,5.00,0.00,22.8,22.3,00.0,31.6,24.7,14.4,0000.0,0003.76,0002.18,0001.55
2022-04-30 14:32:00,,0825.0,5.00,0.00,22.8,22.3,00.0,31.6,24.8,14.4,0000.0,0004.42,0002.17,0001.54
2022-04-30 14:33:00,,0825.0,5.01,0.00,22.9,22.3,00.0,31.7,24.8,14.4,0000.0,0005.65,0002.14,0001.53
2022-04-30 14:34:00,,0825.1,5.00,0.00,22.9,22.3,00.0,31.7,24.8,14.5,0000.0,0005.85,0002.23,0001.57
2022-04-30 14:35:00,,0825.1,4.99,0.00,22.9,22.3,00.0,31.7,24.8,14.4,0000.0,0005.95,0002.27,0001.61
2022-04-30 14:36:00,,0825.1,5.00,0.00,22.9,22.3,00.0,31.7,24.8,14.4,0000.0,0005.95,0002.27,0001.61
2022-04-30 14:37:00,,0825.2,5.01,0.00,22.9,22.4,00.0,31.7,24.8,14.4,0000.0,0006.08,0002.26,0001.61
2022-04-30 14:38:00,,0825.1,5.01,0.00,22.9,22.3,00.0,31.7,24.8,14.6,0000.0,0006.25,0002.32,0001.62
2022-04-30 14:39:00,,0825.2,5.00,0.00,22.9,22.4,00.0,31.8,24.8,14.5,0000.0,0006.08,0002.27,0001.61
2022-04-30 14:40:00,,0825.1,5.00,0.00,22.9,22.4,00.0,31.8,24.8,14.4,0000.0,0006.91,0002.27,0001.61
2022-04-30 14:41:00,,0825.1,4.99,0.00,22.9,22.3,00.0,31.8,24.8,14.1,0000.0,0007.51,0002.34,0001.65
2022-04-30 14:42:00,,0825.1,5.00,0.00,22.9,22.3,00.0,31.8,24.8,14.2,0000.0,0007.54,0002.29,0001.69
2022-04-30 14:43:00,,0825.1,5.00,0.00,22.9,22.3,00.0,31.8,24.8,14.5,0000.0,0007.18,0002.33,0001.71
2022-04-30 14:44:00,,0825.2,5.01,0.00,22.9,22.4,00.0,31.8,24.8,14.3,0000.0,0006.31,0002.33,0001.72
2022-04-30 14:45:00,,0825.1,5.00,0.00,22.9,22.4,00.0,31.8,24.8,14.1,0000.0,0006.86,0002.37,0001.73
2022-04-30 14:46:00,,0825.2,5.00,0.00,22.9,22.3,00.0,31.8,24.8,14.0,0000.0,0007.09,0002.38,0001.73
2022-04-30 14:47:00,,0825.2,5.00,0.00,22.9,22.3,00.0,31.8,24.8,14.0,0000.0,0007.46,0002.39,0001.73
2022-04-30 14:48:00,,0825.2,5.00,0.00,22.9,22.3,00.0,31.8,24.8,14.0,0000.0,0007.47,0002.40,0001.74
2022-04-30 14:49:00,,0825.2,5.00,0.00,22.9,22.4,00.0,31.8,24.8,14.0,0000.0,0008.02,0002.40,0001.77
2022-04-30 14:50:00,,0825.2,5.00,0.00,22.9,22.4,00.0,31.8,24.8,13.8,0000.0,0008.17,0002.46,0001.80
2022-04-30 14:51:00,,0825.2,5.01,0.00,22.9,22.4,00.0,31.8,24.8,14.0,0000.0,0007.96,0002.52,0001.86
2022-04-30 14:52:00,,0825.2,5.01,0.00,23.0,22.4,00.0,31.8,24.8,14.1,0000.0,0007.44,0002.50,0001.86
2022-04-30 14:53:00,,0825.2,4.99,0.00,23.0,22.4,00.0,31.9,24.9,14.0,0000.0,0007.27,0002.53,0001.89
2022-04-30 14:54:00,,0825.2,4.99,0.00,23.0,22.4,00.0,31.9,24.9,14.0,0000.0,0007.27,0002.58,0001.93
2022-04-30 14:55:00,,0825.2,4.99,0.00,23.0,22.4,00.0,31.9,24.9,14.1,0000.0,0007.02,0002.63,0001.97
2022-04-30 14:56:00,,0825.2,5.00,0.00,23.0,22.4,00.0,31.9,24.9,14.0,0000.0,0006.64,0002.68,0002.02
2022-04-30 14:57:00,,0825.2,5.01,0.00,23.0,22.4,00.0,31.9,24.9,13.6,0000.0,0006.15,0002.65,0002.05
2022-04-30 14:58:00,,0825.2,5.01,0.00,23.0,22.4,00.0,31.9,24.9,13.7,0000.0,0005.95,0002.75,0002.14
2022-04-30 14:59:00,,0825.3,5.00,0.00,23.0,22.4,00.0,31.9,24.9,13.6,0000.0,0005.91,0002.94,0002.32
